Flag for U.S.A. Weather past 2 weeks in Prudhoe Bay, Alaska, U.S.A.

Now
-20 °F

Ice fog.


Feels Like: -51 °F
Forecast: -17 / -13 °F
Wind: 25 mph from Southwest

Location: Deadhorse Airport

Current Time: Jan 25, 2015 at 7:29:29 PM

Latest Report: Jan 25, 2015 at 7:00 PM


Visibility: 0 mi

Pressure: 30.15 "Hg

Humidity: 69%

Dew point: -27 °F

Location of Prudhoe BayLocation

Historic Weather in Prudhoe Bay — Graph

°F

Prudhoe Bay temperature yesterday

Maximum temperature yesterday: -15 °F (at 12:00 AM)
Minimum temperature yesterday: -27 °F (at 1:53 PM)
Average temperature yesterday: -23 °F

Past Weeks' High & Low Weather Summary

 TemperatureHumidityPressure
High3 °F (Jan 10, 4:00 PM)82% (Jan 19, 2:53 PM)30.40 "Hg (Jan 19, 2:53 PM)
Low-35 °F (Jan 13, 2:53 PM)64% (Jan 24, 2:53 PM)29.34 "Hg (Jan 15, 10:53 PM)
Average-12 °F73%29.87 "Hg
* Reported Jan 10 4:00 PM — Jan 25 4:53 PM, Prudhoe Bay, Weather by CustomWeather, © 2014

Note: Actual official high and low records may vary slightly from our data, if they occured in-between our weather recording intervals... More about our weather records

Advertising

Prudhoe Bay weather history for previous 24 hours

 ConditionsComfort  
Time TempWeatherWind HumidityBarometerVisibility
4:53 PM
Jan 25
-21 °FIce fog.25 mph69%30.15 "Hg1 mi
3:53 PM-21 °FIce fog.21 mph69%30.14 "Hg1 mi
2:53 PM-22 °FIce fog.23 mph69%30.14 "Hg1 mi
1:53 PM-22 °FIce fog.22 mph69%30.13 "Hg1 mi
12:53 PM-22 °FIce fog.21 mph73%30.13 "Hg1 mi
11:53 AM-20 °FIce fog.25 mph69%30.12 "Hg1 mi
10:53 AM-20 °FIce fog.23 mph69%30.11 "Hg1 mi
9:53 AM-20 °FIce fog.22 mph69%30.10 "Hg2 mi
8:53 AM-20 °FIce fog.23 mph69%30.10 "Hg1 mi
7:53 AM-21 °FIce fog.18 mph69%30.09 "Hg1 mi
6:53 AM-21 °FIce fog.22 mph65%30.09 "Hg2 mi
5:53 AM-24 °FIce fog.15 mph68%30.08 "Hg1 mi
4:53 AM-25 °FIce fog.22 mph68%30.07 "Hg1 mi
3:53 AM-25 °FIce fog.22 mph68%30.07 "Hg2 mi
2:53 AM-27 °FLight snow. Ice fog.14 mph64%30.07 "Hg3 mi
1:53 AM-29 °FClear.15 mph68%30.07 "Hg8 mi
12:53 AM-26 °FIce fog.18 mph68%30.06 "Hg5 mi
11:53 PM
Jan 24
-26 °FClear.15 mph68%30.06 "Hg8 mi
10:53 PM-25 °FIce fog.16 mph68%30.06 "Hg6 mi
9:53 PM-24 °FIce fog.16 mph64%30.06 "Hg5 mi
8:53 PM-24 °FOvercast.18 mph68%30.05 "Hg4 mi
8:00 PM-24 °FOvercast.14 mph68%30.04 "Hg6 mi
Weather by CustomWeather, © 2014

See weather overviewHow to use our weather pages